Location: Barruelo
(41.2448°N, 3.8231°W)
Time: 21:33:14
(UTC+00:00)

ARIANE 5 R/B - Visible Passes

Search period start: 16 March 2026 00:00
Search period end: 26 March 2026 00:00
Orbit: 746 x 793 km, 98.8° (Epoch: 16 March)

Date Brightness Start Highest point End Pass type
(mag) Time Alt. Az. Time Alt. Az. Time Alt. Az.
16 Mar 5.8 05:50:45 10° NE 05:53:42 15° E 05:56:40 10° SE visible
16 Mar 4.0 18:43:31 10° S 18:48:12 42° W 18:52:56 10° NNW visible
18 Mar 5.2 19:12:18 10° SSW 19:16:12 23° W 19:20:07 10° NW visible
19 Mar 6.0 05:43:36 10° ENE 05:45:50 13° E 05:48:03 10° ESE visible
20 Mar 5.7 19:42:20 10° WSW 19:44:18 12° W 19:46:17 10° WNW visible
21 Mar 4.9 19:04:07 10° SSW 19:08:20 27° W 19:12:35 10° NW visible
22 Mar 6.3 05:37:09 10° E 05:37:57 10° E 05:38:44 10° E visible
23 Mar 5.5 19:33:37 10° SW 19:36:24 15° W 19:39:13 10° WNW visible
24 Mar 4.5 18:56:02 10° SSW 19:00:28 33° W 19:04:59 10° NNW visible
